Location: Burbank
(38.7788°N, 114.0429°W)
Time: 21:34:28
(UTC+00:00)

S-56A Canister/Altair - Pass Details

Date: 14 May 2026
Orbit: 632 x 2484 km, 38.9° (Epoch: 8 June)

Event Time Altitude Azimuth Distance (km) Brightness Sun altitude
Rises 08:59:45 0° 281° (W) 3,156 - -29.0°
Reaches altitude 10° 09:01:55 10° 276° (W) 2,360 - -28.9°
Maximum altitude 09:07:12 50° 201° (SSW) 1,240 - -28.4°
Exits shadow 09:11:48 22° 137° (SE) 2,340 9.8 -28.0°
Drops below altitude 10° 09:14:50 10° 129° (SE) 3,388 10.7 -27.8°
Sets 09:18:32 0° 125° (SE) 4,678 11.5 -27.4°
